Location: Ch�risy
(50.2331°N, 2.9131°E)
Time: 19:22:44
(UTC+00:00)

USA 229 DEB - Pass Details

Date: 17 January 2021
Orbit: 965 x 1247 km, 63.4° (Epoch: 26 February)

Event Time Altitude Azimuth Distance (km) Brightness Sun altitude
Rises 18:11:05 0° 309° (NW) 3,864 7.2 -17.6°
Reaches altitude 10° 18:13:55 10° 317° (NW) 2,950 6.4 -18.1°
Maximum altitude 18:20:25 38° 25° (NNE) 1,686 4.4 -19.1°
Enters shadow 18:23:04 29° 65° (ENE) 1,986 4.5 -19.5°
